Location: Skalnate Pleso
(49.1889°N, 20.2450°E)
Time: 15:17:01
(UTC+02:00)

COSMOS 2428 - Pass Details

Date: 21 February 2020
Orbit: 846 x 856 km, 70.9° (Epoch: 01 April)

Event Time Altitude Azimuth Distance (km) Brightness Sun altitude
Exits shadow 02:58:45 21° 2° (N) 1,835 4.6 -35.7°
Drops below altitude 10° 03:00:55 10° 17° (NNE) 2,501 5.6 -35.4°
Sets 03:03:37 0° 26° (NNE) 3,440 6.5 -35.0°
